Station Historical Data
Daily Summary for July 25, 2017 Units:  Metric    English   Both
« Previous Day
Next Day »
Daily Weekly Monthly Yearly Custom
  High: Low: Average:
Temperature: 21.3 °C 14.7 °C 17.7 °C
Dew Point: 14.9 °C 12.5 °C 13.9 °C
Humidity: 91% 64% 79%
Wind Speed: 14.5km/h 0km/h 2.6km/h
Wind Gust: 22.5km/h - -
Wind- - South
Pressure: 1023.6 hPa 1014.4 hPa -
Precipitation: 0.51 mm    
Historical Graphs
 
 
Tabular Data for July 25, 2017
Time Temperature Dew Point Pressure Wind Wind Speed Wind Gust Humidity Rainfall Rate (Hourly)
00:00 16.7 °C 14.9 °C 1014.4 hPa WNW 1.6 km/h 11.3 km/h 89% 0 mm
00:05 16.7 °C 14.9 °C 1014.4 hPa NW 3.2 km/h 11.3 km/h 89% 0 mm
00:10 16.7 °C 14.8 °C 1014.4 hPa NNW 3.2 km/h 8 km/h 89% 0 mm
00:15 16.7 °C 14.9 °C 1014.4 hPa NW 4.8 km/h 8 km/h 89% 0 mm
00:20 16.7 °C 14.9 °C 1014.8 hPa Calm   6.4 km/h 89% 0 mm
00:25 16.7 °C 14.9 °C 1014.8 hPa NW 3.2 km/h 6.4 km/h 89% 0 mm
00:30 16.7 °C 14.8 °C 1014.8 hPa NW 3.2 km/h 8 km/h 89% 0 mm
00:35 16.7 °C 14.7 °C 1014.8 hPa NW 4.8 km/h 12.9 km/h 88% 0 mm
00:40 16.6 °C 14.6 °C 1014.8 hPa WNW 1.6 km/h 14.5 km/h 88% 0 mm
00:45 16.6 °C 14.4 °C 1014.8 hPa NNW 4.8 km/h 11.3 km/h 87% 0 mm
00:50 16.6 °C 14.6 °C 1015.1 hPa NW 4.8 km/h 11.3 km/h 88% 0 mm
00:55 16.6 °C 14.6 °C 1015.1 hPa NW 1.6 km/h 8 km/h 88% 0 mm
01:00 16.6 °C 14.6 °C 1015.1 hPa WNW 1.6 km/h 4.8 km/h 88% 0 mm
01:05 16.7 °C 14.7 °C 1015.1 hPa Calm   6.4 km/h 88% 0 mm
01:10 16.7 °C 14.7 °C 1015.1 hPa Calm   4.8 km/h 88% 0 mm
01:15 16.7 °C 14.7 °C 1015.5 hPa Calm   6.4 km/h 88% 0 mm
01:20 16.7 °C 14.7 °C 1015.5 hPa NW 1.6 km/h 6.4 km/h 88% 0 mm
01:25 16.7 °C 14.7 °C 1015.5 hPa NNW 1.6 km/h 11.3 km/h 88% 0 mm
01:30 16.6 °C 14.6 °C 1015.5 hPa NNW 4.8 km/h 11.3 km/h 88% 0 mm
01:35 16.6 °C 14.6 °C 1015.5 hPa NNW 4.8 km/h 11.3 km/h 88% 0 mm
01:40 16.5 °C 14.5 °C 1015.5 hPa NW 1.6 km/h 4.8 km/h 88% 0 mm
01:45 16.5 °C 14.5 °C 1015.5 hPa NW 1.6 km/h 3.2 km/h 88% 0 mm
01:50 16.5 °C 14.5 °C 1015.8 hPa Calm   3.2 km/h 88% 0 mm
01:55 16.5 °C 14.5 °C 1015.8 hPa Calm   3.2 km/h 88% 0 mm
02:00 16.6 °C 14.6 °C 1015.8 hPa NNW 1.6 km/h 4.8 km/h 88% 0 mm
02:05 16.6 °C 14.6 °C 1015.8 hPa North 12.9 km/h 12.9 km/h 88% 0 mm
02:10 16.6 °C 14.6 °C 1015.8 hPa North 4.8 km/h 12.9 km/h 88% 0 mm
02:15 16.6 °C 14.6 °C 1015.8 hPa WNW 4.8 km/h 8 km/h 88% 0 mm
02:20 16.5 °C 14.5 °C 1015.8 hPa NNW 3.2 km/h 8 km/h 88% 0 mm
02:25 16.5 °C 14.5 °C 1015.8 hPa NW 1.6 km/h 4.8 km/h 88% 0 mm
02:30 16.5 °C 14.5 °C 1015.8 hPa NNW 3.2 km/h 8 km/h 88% 0 mm
02:35 16.4 °C 14.4 °C 1015.8 hPa NNW 1.6 km/h 8 km/h 88% 0 mm
02:40 16.4 °C 14.6 °C 1015.8 hPa Calm     89% 0 mm
02:45 16.4 °C 14.6 °C 1015.8 hPa Calm     89% 0 mm
02:50 16.4 °C 14.6 °C 1015.8 hPa NNW 1.6 km/h 4.8 km/h 89% 0 mm
02:55 16.4 °C 14.6 °C 1015.8 hPa Calm   3.2 km/h 89% 0 mm
03:00 16.3 °C 14.5 °C 1015.8 hPa Calm   4.8 km/h 89% 0 mm
03:05 16.4 °C 14.6 °C 1015.8 hPa Calm   1.6 km/h 89% 0 mm
03:10 16.3 °C 14.7 °C 1016.1 hPa Calm   3.2 km/h 90% 0 mm
03:15 16.4 °C 14.7 °C 1016.1 hPa Calm   3.2 km/h 90% 0 mm
03:20 16.3 °C 14.6 °C 1016.1 hPa NW 1.6 km/h 8 km/h 90% 0 mm
03:25 16.3 °C 14.6 °C 1016.1 hPa NW 1.6 km/h 8 km/h 90% 0 mm
03:30 16.3 °C 14.6 °C 1016.1 hPa North 1.6 km/h 4.8 km/h 90% 0 mm
03:35 16.3 °C 14.7 °C 1016.1 hPa Calm   4.8 km/h 90% 0 mm
03:40 16.2 °C 14.6 °C 1016.1 hPa Calm     90% 0 mm
03:45 16.3 °C 14.6 °C 1016.1 hPa Calm     90% 0 mm
03:50 16.3 °C 14.6 °C 1016.5 hPa Calm     90% 0 mm
03:55 16.3 °C 14.6 °C 1016.5 hPa Calm   4.8 km/h 90% 0 mm
04:00 16.2 °C 14.6 °C 1016.5 hPa Calm   6.4 km/h 90% 0 mm
04:05 16.2 °C 14.5 °C 1016.5 hPa Calm   4.8 km/h 90% 0 mm
04:10 16.2 °C 14.6 °C 1016.8 hPa Calm   1.6 km/h 90% 0 mm
04:15 16.2 °C 14.5 °C 1016.8 hPa Calm   4.8 km/h 90% 0 mm
04:20 16.1 °C 14.4 °C 1016.8 hPa NNW 1.6 km/h 9.7 km/h 90% 0 mm
04:25 16.1 °C 14.4 °C 1016.8 hPa NW 4.8 km/h 19.3 km/h 90% 0 mm
04:30 16.1 °C 14.4 °C 1017.2 hPa NW 3.2 km/h 9.7 km/h 90% 0 mm
04:35 16.1 °C 14.4 °C 1017.2 hPa NW 6.4 km/h 9.7 km/h 90% 0 mm
04:40 16 °C 14.2 °C 1017.2 hPa NNW 3.2 km/h 8 km/h 89% 0 mm
04:45 16 °C 14.2 °C 1017.2 hPa NNW 1.6 km/h 8 km/h 89% 0 mm
04:50 16 °C 14.2 °C 1017.5 hPa North 1.6 km/h 9.7 km/h 89% 0 mm
04:55 16 °C 14.2 °C 1017.5 hPa North 3.2 km/h 8 km/h 89% 0 mm
05:00 16 °C 14 °C 1017.5 hPa North 1.6 km/h 11.3 km/h 88% 0 mm
05:05 16 °C 14 °C 1017.5 hPa NNW 1.6 km/h 4.8 km/h 88% 0 mm
05:10 16.1 °C 13.9 °C 1017.5 hPa NW 1.6 km/h 6.4 km/h 87% 0 mm
05:15 16.1 °C 13.9 °C 1017.5 hPa NNW 1.6 km/h 6.4 km/h 87% 0 mm
05:20 16 °C 13.8 °C 1017.5 hPa NNW 3.2 km/h 8 km/h 87% 0 mm
05:25 16 °C 13.7 °C 1017.8 hPa Calm   9.7 km/h 86% 0 mm
05:30 15.9 °C 13.6 °C 1017.8 hPa NW 4.8 km/h 9.7 km/h 86% 0 mm
05:35 15.8 °C 13.7 °C 1017.8 hPa NNW 3.2 km/h 9.7 km/h 87% 0.25 mm
05:40 15.8 °C 13.7 °C 1017.8 hPa NW 3.2 km/h 8 km/h 87% 0.25 mm
05:45 15.8 °C 13.6 °C 1017.8 hPa NW 1.6 km/h 4.8 km/h 87% 0.25 mm
05:50 15.7 °C 13.6 °C 1017.8 hPa NW 1.6 km/h 4.8 km/h 87% 0.25 mm
05:55 15.7 °C 13.7 °C 1017.8 hPa Calm   3.2 km/h 88% 0.25 mm
06:00 15.7 °C 13.7 °C 1018.2 hPa NW 1.6 km/h 3.2 km/h 88% 0.25 mm
06:05 15.7 °C 13.7 °C 1018.2 hPa Calm   6.4 km/h 88% 0.25 mm
06:10 15.7 °C 13.7 °C 1018.2 hPa Calm   4.8 km/h 88% 0.25 mm
06:15 15.6 °C 13.6 °C 1018.5 hPa North 3.2 km/h 12.9 km/h 88% 0.25 mm
06:20 15.4 °C 13.4 °C 1018.5 hPa North 1.6 km/h 9.7 km/h 88% 0.25 mm
06:25 15.4 °C 13.6 °C 1018.5 hPa NNW 4.8 km/h 11.3 km/h 89% 0.25 mm
06:30 15.3 °C 13.6 °C 1018.8 hPa NW 1.6 km/h 9.7 km/h 89% 0.25 mm
06:35 15.3 °C 13.7 °C 1018.8 hPa NNW 3.2 km/h 9.7 km/h 90% 0 mm
06:40 15.3 °C 13.7 °C 1018.8 hPa NNW 1.6 km/h 6.4 km/h 90% 0 mm
06:45 15.3 °C 13.7 °C 1018.8 hPa NNW 1.6 km/h 4.8 km/h 90% 0 mm
06:50 15.2 °C 13.6 °C 1018.8 hPa Calm   4.8 km/h 90% 0.25 mm
06:55 15.2 °C 13.6 °C 1018.5 hPa NNW 1.6 km/h 4.8 km/h 90% 0.25 mm
07:00 15.3 °C 13.9 °C 1018.8 hPa NNW 3.2 km/h 3.2 km/h 91% 0.25 mm
07:05 15.4 °C 13.9 °C 1018.8 hPa Calm   3.2 km/h 91% 0.25 mm
07:10 15.4 °C 14 °C 1018.8 hPa Calm   3.2 km/h 91% 0.25 mm
07:15 15.4 °C 13.8 °C 1018.8 hPa Calm   1.6 km/h 90% 0.25 mm
07:20 15.6 °C 13.9 °C 1019.2 hPa Calm     90% 0.25 mm
07:25 15.6 °C 14 °C 1019.2 hPa Calm     90% 0.25 mm
07:30 15.7 °C 14.1 °C 1019.2 hPa Calm     90% 0.25 mm
07:35 15.7 °C 14.1 °C 1019.2 hPa Calm     90% 0.25 mm
07:40 15.8 °C 14.2 °C 1019.5 hPa Calm     90% 0.25 mm
07:45 15.8 °C 14 °C 1019.5 hPa Calm     89% 0.25 mm
07:50 15.9 °C 14.1 °C 1019.5 hPa Calm     89% 0 mm
07:55 16 °C 14.2 °C 1019.5 hPa Calm     89% 0 mm
08:00 16 °C 14.2 °C 1019.5 hPa Calm     89% 0 mm
08:05 15.9 °C 13.9 °C 1019.9 hPa Calm     88% 0 mm
08:10 16 °C 14.2 °C 1019.9 hPa Calm     89% 0 mm
08:15 16.1 °C 14.3 °C 1019.9 hPa Calm     89% 0 mm
08:20 16.3 °C 14.4 °C 1019.9 hPa Calm     89% 0 mm
08:25 16.5 °C 14.7 °C 1019.9 hPa NNW 1.6 km/h 4.8 km/h 89% 0 mm
08:30 16.6 °C 14.4 °C 1019.9 hPa NNW 1.6 km/h 8 km/h 87% 0 mm
08:35 16.6 °C 14.4 °C 1019.9 hPa ENE 3.2 km/h 9.7 km/h 87% 0 mm
08:40 16.7 °C 14.3 °C 1020.2 hPa North 1.6 km/h 8 km/h 86% 0 mm
08:45 16.7 °C 14.4 °C 1019.9 hPa NNW 1.6 km/h 8 km/h 86% 0 mm
08:50 16.7 °C 14.4 °C 1020.2 hPa NNW 4.8 km/h 9.7 km/h 86% 0 mm
08:55 16.8 °C 14.4 °C 1020.2 hPa North 3.2 km/h 8 km/h 86% 0 mm
09:00 16.9 °C 14.3 °C 1020.2 hPa NNW 3.2 km/h 8 km/h 85% 0 mm
09:05 16.9 °C 14.3 °C 1020.2 hPa NNW 3.2 km/h 9.7 km/h 85% 0 mm
09:10 16.9 °C 14.2 °C 1020.5 hPa North 4.8 km/h 14.5 km/h 84% 0 mm
09:15 17 °C 14.3 °C 1020.5 hPa North 4.8 km/h 14.5 km/h 84% 0 mm
09:20 17.1 °C 14.2 °C 1020.5 hPa North 4.8 km/h 19.3 km/h 83% 0 mm
09:25 17 °C 13.7 °C 1020.9 hPa NNE 6.4 km/h 11.3 km/h 81% 0 mm
09:30 17.1 °C 13.6 °C 1020.9 hPa North 4.8 km/h 11.3 km/h 80% 0 mm
09:35 17.2 °C 13.7 °C 1020.9 hPa North 4.8 km/h 11.3 km/h 80% 0 mm
09:40 17.3 °C 14 °C 1020.5 hPa North 4.8 km/h 6.4 km/h 81% 0 mm
09:45 17.2 °C 13.5 °C 1020.9 hPa NNE 3.2 km/h 12.9 km/h 79% 0 mm
09:50 17.4 °C 13.9 °C 1020.9 hPa NNW 1.6 km/h 16.1 km/h 80% 0 mm
09:55 17.6 °C 13.9 °C 1020.9 hPa NW 8 km/h 11.3 km/h 79% 0 mm
10:00 17.6 °C 13.9 °C 1020.9 hPa NNW 4.8 km/h 11.3 km/h 79% 0 mm
10:05 17.5 °C 13.6 °C 1020.9 hPa NNW 6.4 km/h 19.3 km/h 78% 0 mm
10:10 17.2 °C 13.3 °C 1020.9 hPa NW 3.2 km/h 17.7 km/h 78% 0 mm
10:15 17.1 °C 13.4 °C 1020.9 hPa NW 6.4 km/h 14.5 km/h 79% 0 mm
10:20 17.2 °C 13.6 °C 1020.9 hPa North 6.4 km/h 11.3 km/h 79% 0 mm
10:25 17.4 °C 13.6 °C 1020.9 hPa NNW 8 km/h 8 km/h 78% 0 mm
10:30 17.7 °C 13.8 °C 1021.2 hPa North 3.2 km/h 9.7 km/h 78% 0 mm
10:35 17.7 °C 13.6 °C 1021.2 hPa NNE 3.2 km/h 9.7 km/h 77% 0 mm
10:40 17.8 °C 13.6 °C 1020.9 hPa NE 4.8 km/h 16.1 km/h 76% 0 mm
10:45 18.1 °C 13.8 °C 1021.2 hPa North 3.2 km/h 12.9 km/h 76% 0 mm
10:50 17.9 °C 13.2 °C 1021.2 hPa NE 6.4 km/h 11.3 km/h 74% 0 mm
10:55 17.8 °C 13.7 °C 1021.2 hPa ENE 3.2 km/h 6.4 km/h 77% 0 mm
11:00 17.9 °C 13.4 °C 1021.6 hPa North 4.8 km/h 9.7 km/h 75% 0 mm
11:05 17.7 °C 13.2 °C 1021.6 hPa North 3.2 km/h 12.9 km/h 75% 0 mm
11:10 17.3 °C 13.3 °C 1021.6 hPa North 4.8 km/h 12.9 km/h 77% 0 mm
11:15 17.3 °C 13.3 °C 1021.6 hPa North 3.2 km/h 8 km/h 77% 0 mm
11:20 17.3 °C 13.3 °C 1021.6 hPa NNE 6.4 km/h 8 km/h 77% 0 mm
11:25 17.3 °C 13.2 °C 1021.6 hPa NNE 3.2 km/h 8 km/h 77% 0 mm
11:30 17.4 °C 13.4 °C 1021.6 hPa North 3.2 km/h 11.3 km/h 77% 0 mm
11:35 17.6 °C 13.3 °C 1021.6 hPa NNE 3.2 km/h 11.3 km/h 76% 0 mm
11:40 17.8 °C 13.6 °C 1021.6 hPa NE 4.8 km/h 14.5 km/h 76% 0 mm
11:45 18.1 °C 13.6 °C 1021.9 hPa NE 3.2 km/h 14.5 km/h 75% 0 mm
11:50 18.2 °C 13.4 °C 1021.9 hPa NE 3.2 km/h 11.3 km/h 74% 0 mm
11:55 18.2 °C 13.4 °C 1021.9 hPa NNE 3.2 km/h 11.3 km/h 74% 0 mm
12:00 18 °C 13.5 °C 1021.9 hPa NNE 3.2 km/h 8 km/h 75% 0 mm
12:05 17.8 °C 13.3 °C 1021.9 hPa NE 3.2 km/h 12.9 km/h 75% 0 mm
12:10 17.7 °C 13.4 °C 1021.9 hPa Calm   6.4 km/h 76% 0 mm
12:15 17.6 °C 13.3 °C 1021.9 hPa NNW 6.4 km/h 9.7 km/h 76% 0 mm
12:20 17.7 °C 13.4 °C 1021.9 hPa NE 6.4 km/h 8 km/h 76% 0 mm
12:25 17.9 °C 13.6 °C 1021.9 hPa North 3.2 km/h 9.7 km/h 76% 0 mm
12:30 18.1 °C 13.6 °C 1022.2 hPa NNE 3.2 km/h 9.7 km/h 75% 0 mm
12:35 18.3 °C 13.8 °C 1021.9 hPa North 1.6 km/h 9.7 km/h 75% 0 mm
12:40 17.9 °C 13.2 °C 1022.2 hPa NNE 1.6 km/h 9.7 km/h 74% 0 mm
12:45 17.7 °C 13.4 °C 1022.2 hPa North 6.4 km/h 8 km/h 76% 0 mm
12:50 17.8 °C 13.3 °C 1022.2 hPa NNE 3.2 km/h 6.4 km/h 75% 0 mm
12:55 17.9 °C 13.7 °C 1022.2 hPa NNE 3.2 km/h 14.5 km/h 76% 0 mm
13:00 17.9 °C 13.2 °C 1022.2 hPa NNE 4.8 km/h 14.5 km/h 74% 0 mm
13:05 17.9 °C 13.2 °C 1022.2 hPa NE 1.6 km/h 12.9 km/h 74% 0 mm
13:10 18.1 °C 13.6 °C 1022.2 hPa NW 1.6 km/h 8 km/h 75% 0 mm
13:15 18.1 °C 13.6 °C 1022.6 hPa North 1.6 km/h 14.5 km/h 75% 0 mm
13:20 17.8 °C 13.3 °C 1022.6 hPa North 4.8 km/h 14.5 km/h 75% 0 mm
13:25 17.7 °C 13.4 °C 1022.6 hPa North 4.8 km/h 12.9 km/h 76% 0 mm
13:30 17.7 °C 13.4 °C 1022.6 hPa North 1.6 km/h 12.9 km/h 76% 0 mm
13:35 17.8 °C 13.7 °C 1022.6 hPa Calm   4.8 km/h 77% 0 mm
13:40 18.3 °C 13.6 °C 1022.6 hPa ESE 3.2 km/h 8 km/h 74% 0 mm
13:45 18.7 °C 13.9 °C 1022.2 hPa NE 6.4 km/h 9.7 km/h 74% 0 mm
13:50 19.2 °C 14.3 °C 1022.6 hPa NNW 4.8 km/h 11.3 km/h 73% 0 mm
13:55 19.7 °C 14.3 °C 1022.6 hPa NNE 3.2 km/h 12.9 km/h 71% 0 mm
14:00 19.2 °C 13.4 °C 1022.6 hPa NNE 3.2 km/h 12.9 km/h 69% 0 mm
14:05 19.1 °C 13.5 °C 1022.6 hPa NE 4.8 km/h 12.9 km/h 70% 0 mm
14:10 18.8 °C 13.6 °C 1022.6 hPa Calm   6.4 km/h 72% 0 mm
14:15 18.6 °C 13.2 °C 1022.6 hPa ENE 6.4 km/h 14.5 km/h 71% 0 mm
14:20 18.4 °C 13.5 °C 1022.6 hPa ENE 1.6 km/h 6.4 km/h 73% 0 mm
14:25 18.6 °C 13.8 °C 1022.6 hPa Calm   6.4 km/h 74% 0 mm
14:30 18.4 °C 13.5 °C 1022.6 hPa NNW 4.8 km/h 8 km/h 73% 0 mm
14:35 18.6 °C 13.9 °C 1022.6 hPa Calm   9.7 km/h 74% 0 mm
14:40 19.3 °C 14.6 °C 1022.6 hPa NNW 3.2 km/h 9.7 km/h 74% 0 mm
14:45 19.8 °C 14.4 °C 1022.6 hPa NNE 4.8 km/h 11.3 km/h 71% 0 mm
14:50 20 °C 14.1 °C 1022.6 hPa NNE 3.2 km/h 11.3 km/h 69% 0 mm
14:55 20.1 °C 14.4 °C 1022.6 hPa NNE 4.8 km/h 11.3 km/h 70% 0 mm
15:00 20 °C 14.6 °C 1022.6 hPa NE 4.8 km/h 14.5 km/h 71% 0 mm
15:05 20.4 °C 14.7 °C 1022.2 hPa ENE 14.5 km/h 14.5 km/h 70% 0 mm
15:10 20.6 °C 14.7 °C 1022.2 hPa North 6.4 km/h 16.1 km/h 69% 0 mm
15:15 20.3 °C 14.2 °C 1022.2 hPa NE 6.4 km/h 16.1 km/h 68% 0 mm
15:20 20.2 °C 13.7 °C 1022.6 hPa NE 8 km/h 22.5 km/h 66% 0 mm
15:25 20.1 °C 13.7 °C 1022.6 hPa NE 8 km/h 17.7 km/h 67% 0 mm
15:30 20.1 °C 14 °C 1022.2 hPa NE 6.4 km/h 11.3 km/h 68% 0 mm
15:35 20 °C 13.7 °C 1022.2 hPa NE 11.3 km/h 12.9 km/h 67% 0 mm
15:40 19.8 °C 13.3 °C 1022.6 hPa ENE 3.2 km/h 12.9 km/h 66% 0 mm
15:45 19.9 °C 13.8 °C 1022.6 hPa ENE 6.4 km/h 14.5 km/h 68% 0 mm
15:50 20.1 °C 14.4 °C 1022.6 hPa NE 4.8 km/h 14.5 km/h 70% 0 mm
15:55 20.4 °C 14.5 °C 1022.6 hPa NNE 3.2 km/h 11.3 km/h 69% 0 mm
16:00 20.3 °C 14.2 °C 1022.6 hPa ESE 4.8 km/h 16.1 km/h 68% 0 mm
16:05 20.2 °C 13.7 °C 1022.6 hPa ENE 11.3 km/h 22.5 km/h 66% 0 mm
16:10 20.6 °C 14.4 °C 1022.2 hPa North 4.8 km/h 11.3 km/h 68% 0 mm
16:15 20.5 °C 14.2 °C 1022.2 hPa NNE 4.8 km/h 17.7 km/h 67% 0 mm
16:20 20.4 °C 14.3 °C 1022.6 hPa NE 6.4 km/h 17.7 km/h 68% 0 mm
16:25 20.2 °C 14.1 °C 1022.6 hPa NE 6.4 km/h 17.7 km/h 68% 0 mm
16:30 20.2 °C 14.1 °C 1022.6 hPa Calm   11.3 km/h 68% 0 mm
16:35 20.3 °C 14 °C 1022.6 hPa ENE 12.9 km/h 17.7 km/h 67% 0 mm
16:40 20.6 °C 14.2 °C 1022.6 hPa NE 4.8 km/h 17.7 km/h 67% 0 mm
16:45 20.8 °C 14.2 °C 1022.6 hPa ENE 8 km/h 11.3 km/h 66% 0 mm
16:50 20.4 °C 13.9 °C 1022.6 hPa NE 8 km/h 14.5 km/h 66% 0 mm
16:55 20.6 °C 14.4 °C 1022.6 hPa ENE 8 km/h 14.5 km/h 68% 0 mm
17:00 20.9 °C 14.1 °C 1022.6 hPa NE 4.8 km/h 12.9 km/h 65% 0 mm
17:05 21.3 °C 14.7 °C 1022.6 hPa ENE 6.4 km/h 12.9 km/h 66% 0 mm
17:10 21.2 °C 14.3 °C 1022.6 hPa ENE 4.8 km/h 12.9 km/h 65% 0 mm
17:15 21.2 °C 14.4 °C 1022.9 hPa NE 3.2 km/h 9.7 km/h 65% 0 mm
17:20 20.7 °C 14.2 °C 1022.9 hPa NE 3.2 km/h 14.5 km/h 66% 0 mm
17:25 20.5 °C 13.9 °C 1022.9 hPa NE 4.8 km/h 14.5 km/h 66% 0 mm
17:30 21.3 °C 14.9 °C 1022.9 hPa ENE 11.3 km/h 11.3 km/h 67% 0 mm
17:35 20.8 °C 13.8 °C 1022.9 hPa NNW 4.8 km/h 11.3 km/h 64% 0 mm
17:40 20.6 °C 13.8 °C 1022.9 hPa North 1.6 km/h 6.4 km/h 65% 0 mm
17:45 20.3 °C 13.8 °C 1022.6 hPa ENE 6.4 km/h 8 km/h 66% 0 mm
17:50 20.4 °C 13.8 °C 1022.6 hPa NE 3.2 km/h 12.9 km/h 66% 0 mm
17:55 20.4 °C 13.6 °C 1022.6 hPa ENE 4.8 km/h 11.3 km/h 65% 0 mm
18:00 20.3 °C 13.7 °C 1022.9 hPa ENE 4.8 km/h 11.3 km/h 66% 0 mm
18:05 20.3 °C 14 °C 1022.6 hPa ENE 4.8 km/h 9.7 km/h 67% 0 mm
18:10 20.3 °C 14.2 °C 1022.6 hPa ENE 3.2 km/h 8 km/h 68% 0 mm
18:15 20.3 °C 13.7 °C 1022.6 hPa ENE 3.2 km/h 8 km/h 66% 0 mm
18:20 20.2 °C 13.6 °C 1022.6 hPa ENE 3.2 km/h 11.3 km/h 66% 0 mm
18:25 20.5 °C 13.9 °C 1022.6 hPa ENE 1.6 km/h 8 km/h 66% 0 mm
18:30 20.5 °C 13.9 °C 1022.9 hPa ENE 1.6 km/h 8 km/h 66% 0 mm
18:35 20.3 °C 13.8 °C 1022.9 hPa NE 3.2 km/h 11.3 km/h 66% 0 mm
18:40 20.2 °C 13.6 °C 1022.9 hPa East 3.2 km/h 11.3 km/h 66% 0 mm
18:45 20.3 °C 14 °C 1022.9 hPa NE 4.8 km/h 8 km/h 67% 0 mm
18:50 20.4 °C 13.9 °C 1022.9 hPa ENE 4.8 km/h 14.5 km/h 66% 0 mm
18:55 20.4 °C 13.9 °C 1022.6 hPa Calm   6.4 km/h 66% 0 mm
19:00 20.6 °C 13.7 °C 1022.9 hPa NE 3.2 km/h 8 km/h 65% 0 mm
19:05 20.6 °C 13.8 °C 1022.9 hPa ENE 1.6 km/h 9.7 km/h 65% 0 mm
19:10 20.5 °C 14.2 °C 1022.9 hPa ENE 3.2 km/h 9.7 km/h 67% 0 mm
19:15 20.4 °C 13.6 °C 1022.9 hPa Calm     65% 0 mm
19:20 20.4 °C 13.8 °C 1022.9 hPa Calm     66% 0 mm
19:25 20.3 °C 13.7 °C 1022.9 hPa East 4.8 km/h 8 km/h 66% 0 mm
19:30 20.2 °C 13.6 °C 1022.9 hPa East 3.2 km/h 8 km/h 66% 0 mm
19:35 20.2 °C 14.1 °C 1022.9 hPa ESE 1.6 km/h 4.8 km/h 68% 0 mm
19:40 20.1 °C 14 °C 1022.9 hPa Calm   3.2 km/h 68% 0 mm
19:45 20.1 °C 13.9 °C 1023.2 hPa Calm   3.2 km/h 68% 0 mm
19:50 19.9 °C 13.6 °C 1023.2 hPa South 3.2 km/h 4.8 km/h 67% 0 mm
19:55 19.8 °C 13.5 °C 1022.9 hPa East 3.2 km/h 4.8 km/h 67% 0 mm
20:00 19.8 °C 13.5 °C 1022.9 hPa East 1.6 km/h 4.8 km/h 67% 0 mm
20:05 19.7 °C 13.4 °C 1022.9 hPa ENE 3.2 km/h 3.2 km/h 67% 0 mm
20:10 19.7 °C 13.6 °C 1022.9 hPa Calm   4.8 km/h 68% 0 mm
20:15 19.6 °C 13.6 °C 1022.9 hPa Calm   4.8 km/h 68% 0 mm
20:20 19.5 °C 13.7 °C 1022.9 hPa Calm     69% 0 mm
20:25 19.3 °C 13.5 °C 1023.2 hPa Calm   4.8 km/h 69% 0 mm
20:30 19.2 °C 13.6 °C 1023.2 hPa Calm   4.8 km/h 70% 0 mm
20:35 19.1 °C 13.5 °C 1023.2 hPa Calm     70% 0 mm
20:40 18.9 °C 13.3 °C 1023.2 hPa Calm   3.2 km/h 70% 0 mm
20:45 18.8 °C 13.4 °C 1023.2 hPa Calm   3.2 km/h 71% 0 mm
20:50 18.7 °C 13.3 °C 1022.9 hPa Calm     71% 0 mm
20:55 18.6 °C 13.4 °C 1022.9 hPa Calm     72% 0 mm
21:00 18.4 °C 13.3 °C 1022.9 hPa Calm     72% 0 mm
21:05 18.3 °C 13.4 °C 1022.9 hPa Calm     73% 0 mm
21:10 18.2 °C 13.3 °C 1023.2 hPa Calm     73% 0 mm
21:15 18.2 °C 13.2 °C 1023.2 hPa Calm     73% 0 mm
21:20 18.1 °C 13.3 °C 1023.2 hPa Calm     74% 0 mm
21:25 17.9 °C 13.4 °C 1023.2 hPa Calm     75% 0 mm
21:30 17.8 °C 13.6 °C 1023.2 hPa Calm     76% 0 mm
21:35 17.7 °C 13.4 °C 1023.2 hPa Calm     76% 0 mm
21:40 17.7 °C 13.6 °C 1023.2 hPa Calm   4.8 km/h 77% 0 mm
21:45 17.6 °C 13.5 °C 1023.2 hPa Calm   4.8 km/h 77% 0 mm
21:50 17.4 °C 13.6 °C 1023.2 hPa Calm   3.2 km/h 78% 0 mm
21:55 17.3 °C 13.4 °C 1023.6 hPa Calm   3.2 km/h 78% 0 mm
22:00 17.3 °C 13.4 °C 1023.6 hPa Calm   3.2 km/h 78% 0 mm
22:05 17.3 °C 13.4 °C 1023.6 hPa Calm     78% 0 mm
22:10 17.1 °C 13.2 °C 1023.6 hPa Calm     78% 0 mm
22:15 16.8 °C 13.1 °C 1023.6 hPa Calm     79% 0 mm
22:20 16.5 °C 13.1 °C 1023.6 hPa Calm     80% 0 mm
22:25 16.3 °C 13.1 °C 1023.2 hPa Calm     81% 0 mm
22:30 16.4 °C 13.3 °C 1023.6 hPa Calm     82% 0 mm
22:35 16.2 °C 13.2 °C 1023.6 hPa Calm     82% 0 mm
22:40 16 °C 12.9 °C 1023.2 hPa Calm     82% 0 mm
22:45 15.9 °C 13.1 °C 1023.2 hPa Calm     83% 0 mm
22:50 15.8 °C 12.9 °C 1023.2 hPa Calm     83% 0 mm
22:55 15.7 °C 12.9 °C 1023.6 hPa Calm     84% 0 mm
23:00 15.6 °C 12.9 °C 1023.6 hPa Calm     84% 0 mm
23:05 15.5 °C 12.8 °C 1023.2 hPa Calm     84% 0 mm
23:10 15.5 °C 13 °C 1023.2 hPa Calm     85% 0 mm
23:15 15.4 °C 12.9 °C 1023.2 hPa Calm     85% 0 mm
23:20 15.3 °C 12.8 °C 1023.2 hPa Calm     85% 0 mm
23:25 15.2 °C 12.7 °C 1023.2 hPa Calm     85% 0 mm
23:30 15.1 °C 12.6 °C 1023.2 hPa Calm     85% 0 mm
23:35 14.9 °C 12.6 °C 1023.2 hPa Calm     86% 0 mm
23:40 14.9 °C 12.7 °C 1023.2 hPa Calm     87% 0 mm
23:45 14.8 °C 12.5 °C 1023.6 hPa Calm     86% 0 mm
23:50 14.8 °C 12.6 °C 1023.6 hPa Calm     87% 0 mm
23:55 14.7 °C 12.5 °C 1023.6 hPa Calm     87% 0 mm
Buffalo, New York, USA
Compliments of Weather Underground - 2.75 mb